Location: Newark
(49.7131°N, 2.5431°E)
Time: 15:54:35
(UTC+00:00)

N. Korean satellite - Visible Passes

Search period start: 30 September 2020 00:00
Search period end: 10 October 2020 00:00
Orbit: 455 x 503 km, 97.2° (Epoch: 29 September)

Date Brightness Start Highest point End Pass type
(mag) Time Alt. Az. Time Alt. Az. Time Alt. Az.
30 Sep 9.4 04:43:14 10° NE 04:46:10 23° E 04:49:02 10° SSE visible
01 Oct 10.1 04:18:22 10° ENE 04:19:52 12° E 04:21:22 10° ESE visible
03 Oct 8.6 04:58:09 10° NNE 05:01:27 33° E 05:04:40 10° SSE visible
04 Oct 9.8 04:32:44 10° NE 04:35:12 17° E 04:37:38 10° SE visible
05 Oct 10.8 17:54:39 10° W 17:55:29 11° W 17:56:20 10° WNW visible
06 Oct 7.7 05:13:09 10° NNE 05:16:40 49° E 05:20:04 10° S visible
07 Oct 9.1 04:47:27 10° NE 04:50:27 25° E 04:53:24 10° SSE visible
08 Oct 10.0 04:22:22 10° ENE 04:24:09 13° E 04:25:54 10° ESE visible
09 Oct 6.7 05:28:13 10° NNE 05:31:47 77° ESE 05:35:15 10° S visible
09 Oct 10.3 17:42:28 10° WSW 17:44:25 14° W 17:46:22 10° WNW visible
